STARLINK-35973, 66632

Orbit data source: Space-Track

STARLINK-35973, 66632 is a payload satellite owned by SpaceX/Seattle (US) in LEO that was launched on Sun, 23 Nov 2025 UTC via an FALCON 9 launch vehicle from the Air Force Western Test Range (AFWTR). Payload-class satellites include a variety of spacecraft equipped with specific instruments for various scientific and technological missions. These include communications satellites like Starlink; space stations such as the ISS; scientific satellites like the Hubble; Earth observation satellites from companies like Planet Labs, Umbra, and HawkEye 360; GPS; miniature CubeSats for education and research; and military/defense satellites.

Loading next visibility...
Identifier
66632, 2025-271R
Orbit
LEO
Country
Flag of USUS
Related business
Manufacturer
SpaceX/Seattle
Mission
Operational Commercial Communications
Bus & Motor
STARLINK V2MO, Unknown motor
Mass
575 kg wet, ~530 kg dry
Launch date (UTC)
2025-11-23 (2 months ago)
Launch vehicle
FALCON 9
Launch site
Air Force Western Test Range (AFWTR)
Object type
Payload
Rocket body
Debris
Shape & HBR
Box + 2 Pan, 17.7 m
Radar Cross Section
36.964 m²

Expand to show TLE details & history
Last TLE update: 4 hours ago

TLE from 4 hours ago
0 STARLINK-35973
1 66632U 25271R   26037.12226977  .00008354  00000-0  29395-3 0  9995
2 66632  53.1547 286.5629 0000796 121.3008 238.8071 15.30190300 12694
Epoch: 2026-02-06T02:56Z
TLE epoch observation values (Epoch: 2026-02-06T02:56:04.108Z)
Latitude
0.00002°
Longitude
106.28112°
Altitude
476.426 km
Speed
7.629 km/s
True Right ascension
19h 06m 15s
True Declination
0° 00' 00"
Sunlit
Object was in daylight at epoch
Visualization orbit readout
Latitude
Unknown
Longitude
Unknown
Altitude
Unknown
Speed
Unknown
Apparent Right ascension
Unknown
Apparent Declination
Unknown
Sunlit
N/A
Visualization observer readout
Local Sidereal Time
09:05:39
Azimuth
Unknown
Elevation
Unknown
Doppler factor
Unknown
Orbital elements
Apogee altitude
476.047 km
Perigee altitude
474.956 km
Semi-major axis
6,853.638 km
Eccentricity
0.00008
Inclination
53.1547°
RAAN
286.5629°
Arg. of periapsis
121.3008°
True anomaly
238.7993°
Mean anomaly
238.8071°
Eccentric anomaly
238.8032°
Mean motion
3.82526 °/min
Orbital period
94.11 mins
BSTAR
0.00029395
Loading maneuver chart data...
Computing Atmospheric mass density...
Loading historical data...
Loading historical data...
Loading historical data...
Loading historical data...
Loading historical data...
Loading historical data...
Loading historical data...

Documentation

Showing up to 5 results
|